FW2346 Weather Reports


time (UTC)temp
C
wind
direction
speed
KPH
gust
KPH
rain 1hr
cm
rain 24hr
cm
rain mn
cm
humidity
%
barometer
mb
20260506020153 13 121 0.0 4.8 0.00 0.00 0.00 63 1011.8
20260506014511 14 319 0.0 1.6 0.00 0.00 0.00 61 1011.8
20260506011520 14 335 3.2 6.4 0.00 0.00 0.00 60 1011.9
20260506010003 14 302 3.2 8.0 0.00 0.00 0.00 59 1012.0
20260505223025 15 301 3.2 8.0 0.00 0.00 0.00 54 1012.7
20260505221511 16 338 4.8 8.0 0.00 0.00 0.00 53 1012.8
20260505210001 17 302 1.6 4.8 0.00 0.00 0.00 50 1012.8
20260505193201 18 263 0.0 11.3 0.00 0.00 0.00 57 1011.8
20260505191502 20 300 3.2 12.9 0.00 0.00 0.00 54 1011.7
20260505173007 23 293 6.4 12.9 0.00 0.00 0.00 35 1011.3
20260505171505 23 306 4.8 17.7 0.00 0.00 0.00 35 1011.3
20260505123014 21 276 4.8 16.1 0.00 0.00 0.00 38 1013.6
20260505113004 19 242 3.2 14.5 0.00 0.00 0.00 43 1014.4
20260505101515 18 355 1.6 8.0 0.00 0.00 0.00 50 1014.9
20260505100018 17 339 4.8 16.1 0.00 0.00 0.00 51 1015.0
20260505094512 17 41 0.0 14.5 0.00 0.00 0.00 53 1015.1
20260505093004 17 40 0.0 12.9 0.00 0.00 0.00 52 1015.1
20260505084523 16 290 1.6 4.8 0.00 0.00 0.00 53 1015.1
20260505081517 15 345 3.2 8.0 0.00 0.00 0.00 56 1015.2
20260505074504 15 11 1.6 6.4 0.00 0.00 0.00 59 1015.3
20260505054505 12 342 1.6 3.2 0.00 0.00 0.00 68 1014.6
20260505053004 12 340 0.0 3.2 0.00 0.00 0.00 68 1014.4
20260505051501 12 345 0.0 8.0 0.00 0.00 0.00 67 1014.3
20260505041540 12 18 1.6 4.8 0.00 0.00 0.00 68 1014.2
20260505034510 13 35 3.2 9.7 0.00 0.00 0.00 66 1014.2
20260505031509 13 353 1.6 4.8 0.00 0.00 0.00 67 1014.2
20260505030001 13 356 0.0 4.8 0.00 0.00 0.00 67 1014.2